Powrót do katalogu

STARLINK-37650

AktywnyŁącznośćVLEO
NORAD 100056·PAYLOAD·🇺🇸 United States

Wystrzelony Jul 14, 2026 z Cape Canaveral Space Force Station

Loading…

Następne Przeloty (najbliższe 24 godziny)

TLE

ŚwieżeSource: Space-Track

Epoka: Sep 14, 2026, 08:56 UTC

1 A0056U 26161AE  26257.37228578  .00022143  00000-0  66456-3 0  9993
2 A0056  53.1612  26.0601 0000919  88.0500 272.0608 15.34399236  9678

Śledź STARLINK-37650 w czasie rzeczywistym z AllMySat

Download on the App Store